Regional Weather Roundup
Issued by NWS Cleveland, OH

Home | Current Version | Previous Version | Graphics & Text | Print | Product List | Glossary On
Versions: 1 2 3 4 5 6 7 8 9 10 11 12 13 14 15 16 17 18 19 20 21 22 23 24 25 26 27 28 29 30 31 32 33 34 35 36 37 38 39 40 41 42 43 44 45 46 47 48 49 50
000
ASUS41 KCLE 141302
RWRCLE
OHIO REGIONAL WEATHER ROUNDUP
NATIONAL WEATHER SERVICE CLEVELAND, OH
800 AM EST SUN FEB 14 2016

NOTE: "FAIR" INDICATES FEW OR NO CLOUDS BELOW 12,000 FEET WITH NO
SIGNIFICANT WEATHER AND/OR OBSTRUCTIONS TO VISIBILITY.

OHZ001>008-015>018-024>027-034-035-043-044-141400-
   NORTHWEST OHIO

CITY           SKY/WX    TMP DP  RH WIND       PRES   REMARKS
DEFIANCE       CLOUDY     6   1  80 CALM      30.46R
FINDLAY        CLOUDY     2  -2  83 SE3       30.44S
TOLEDO EXPRESS CLOUDY     1  -3  83 CALM      30.45S
TOLEDO EXEC    CLOUDY     3  -3  76 SE5       30.47S WCI  -6
LIMA           PTCLDY     2  -1  88 S7        30.43S WCI -11
$$

OHZ009>014-019>023-028>033-038-089-141400-
   NORTHEAST OHIO

CITY           SKY/WX    TMP DP  RH WIND       PRES   REMARKS
CLE-HOPKINS    CLOUDY     3  -1  83 S5        30.49S WCI  -6
CLE-LAKEFRONT  CLOUDY    11   4  73 S6        30.47S WCI   1
CUY CO. ARPT   MOCLDY    14   0  52 CALM      30.45F
LORAIN-ELYRIA  CLOUDY    -8 -10  91 S5        30.46F WCI -19
ASHTABULA      LGT SNOW  10   4  76 E3        30.46R
AKRON-CANTON   PTCLDY     0  -3  87 S6        30.42F FOG     WCI -12
WOOSTER        CLOUDY    -5 -10  79 CALM      30.43F HAZE
MANSFIELD      PTCLDY    -5  -7  91 SE5       30.40F FOG     WCI -16
YOUNGSTOWN     CLOUDY     1  -2  87 S5        30.43R WCI  -9
$$

OHZ042-051>053-060>062-070>072-077>081-141400-
  SOUTHWEST OHIO

CITY           SKY/WX    TMP DP  RH WIND       PRES   REMARKS
CINC-COVINGTON CLOUDY    14   4  64 SE9       30.43F WCI   2
CINC-LUNKEN    CLOUDY    14   4  64 VRB5      30.49F WCI   6
HAMILTON       CLOUDY    14   2  58 SE6       30.48S WCI   5
DAYTON         CLOUDY     8   2  76 SE6       30.43F WCI  -2
WRIGHT-PAT AFB MOCLDY     8   0  72 SE5       30.45F WCI  -1
DAYTON GENERAL CLOUDY     9   0  67 E7        30.42F WCI  -2
WILMINGTON     CLOUDY     8   1  73 E6        30.43F WCI  -2
$$

OHZ036-037-039>041-045>050-054>059-063>069-073>076-082>088-141400-
  CENTRAL AND SOUTHEAST OHIO

CITY           SKY/WX    TMP DP  RH WIND       PRES   REMARKS
COLUMBUS       CLOUDY     4  -2  76 S6        30.47S WCI  -7
OSU AIRPORT    CLOUDY     4   0  83 CALM      30.46S
BOLTON FIELD   CLEAR      1   0  92 CALM      30.46S
RICKENBACK AFB NOT AVBL
NEWARK         CLOUDY    -1  -6  79 W3        30.47R
MARION         PTCLDY     2  -4  76 S6        30.44S WCI  -9
LANCASTER      CLOUDY     0  -4  83 CALM      30.47S
ZANESVILLE     CLOUDY    -1  -7  75 CALM      30.47S
NEW PHILLY     PTCLDY     0  32 100 E3        30.48S
$$



USA.gov is the U.S. government's official web portal to all federal, state and local government web resources and services.